www.pogodaiklimat.ru

Погода и климат >> Архив погоды >> Азербайджан >> Курдамир


ПОГОДА в Курдамире

  • Прогноз погоды в Курдамире
  • Монитор погоды в Курдамире

АРХИВ ПОГОДЫ в Курдамире

Время (UTC), дата Ветер
(напр.,м/с)
 
Видим.   Явления Облачность Т
(С)
Тd
(С)
f
(%)
Тe
(С)
Тes
(С)
Комфортность P
(гПа)
Po
(гПа)
Тmin
(С)
Tmax
(С)
R
(мм)
R24
(мм)
S
(см)
12 13.08 ЮВ 3 20 км 6/6 600 м
[Cu med, cong]
+32.6 +13.2 31 +34 +37 очень
жарко
1014.2 1013.7
18 13.08 ЮВ 3 20 км ясно +25.2 +12.8 46 +27 +27 жарко 1015.8 1015.3 +33.6
00 14.08 ЮВ 1 >70 км ясно +21.2 +12.0 56 +23 +23 комфорт 1015.7 1015.2
06 14.08 Ю 2 20 км 3/3 600 м
[Cu med, cong]
+27.8 +15.4 47 +31 +38 душно 1017.0 1016.5 +20.4
12 14.08 В 4 20 км 3/3 600 м
[Cu med, cong]
+31.8 +15.9 38 +34 +39 душно 1013.2 1012.7
18 14.08 ЮВ 2 20 км ясно +25.0 +18.9 69 +30 +30 душно 1014.4 1013.9 +32.5
00 15.08 ЮЗ 1 20 км 4/4 600 м
[Cu med, cong]
+21.8 +17.0 74 +26 +26 душно 1014.3 1013.8
06 15.08 Ю 2 20 км 10/10 600 м
[Sc]
+28.4 +19.6 59 +34 +34 очень
душно
1014.2 1013.7 +21.7
12 15.08 В 1 20 км 8/4 600 м
[Cu med, cong Ac trans]
+32.9 +18.1 41 +37 +41 очень
душно
1010.9 1010.4
18 15.08 ЮВ 2 20 км ясно +25.4 +18.7 66 +30 +30 душно 1013.2 1012.7 +33.4
00 16.08 В 1 20 км ясно +21.7 +15.5 68 +25 +25 комфорт 1012.8 1012.3
06 16.08 В 4 20 км 8/4 600 м
[Cu med, cong Ac trans]
+27.5 +18.7 59 +33 +35 очень
душно
1011.8 1011.3 +21.1
12 16.08 ЮВ 2 20 км 4/0
[Ac trans]
+32.3 +18.7 45 +37 +44 очень
душно
1007.7 1007.2
18 16.08 ЮВ 4 20 км ясно +25.3 +16.8 59 +29 +29 душно 1007.7 1007.2 +32.8
00 17.08 СВ 1 20 км ясно +19.8 +12.1 61 +22 +22 комфорт 1007.9 1007.4
06 17.08 штиль 0 20 км ясно +28.4 +15.0 44 +31 +45 душно 1009.0 1008.5 +19.7
12 17.08 В 2 20 км ясно +33.4 +12.3 28 +34 +43 очень
жарко
1005.9 1005.4
18 17.08 ЮВ 2 20 км ясно +25.9 +13.7 47 +28 +28 жарко 1007.8 1007.3 +34.6
00 18.08 В 1 20 км ясно +20.7 +15.7 73 +25 +25 комфорт 1008.9 1008.4
06 18.08 штиль 0 20 км ясно +29.7 +13.7 38 +31 +46 жарко 1010.3 1009.8 +20.5
12 18.08 Ю 3 20 км ясно +36.9 +9.0 18 +35 +43 очень
жарко
1007.8 1007.3
18 18.08 ЮВ 2 20 км ясно +25.8 +13.8 47 +28 +28 жарко 1009.7 1009.2 +37.9
00 19.08 СЗ 1 20 км ясно +20.6 +14.4 68 +24 +24 комфорт 1011.1 1010.6
06 19.08 З 1 20 км ясно +24.9 +18.8 69 +30 +42 душно 1014.1 1013.6 +19.9
12 19.08 Ю 3 20 км ясно +37.1 +7.1 16 +35 +42 очень
жарко
1012.4 1011.9
18 19.08 ЮВ 2 20 км ясно +27.0 +13.5 43 +29 +29 жарко 1013.9 1013.4 +37.6
00 20.08 СВ 1 20 км ясно +20.2 +15.0 72 +24 +24 комфорт 1014.9 1014.4
06 20.08 СЗ 4 20 км ясно +31.2 +10.7 28 +31 +38 жарко 1016.6 1016.1 +20.1

 

Местоположение метеостанции Курдамир (Азербайджан): широта 40.33 долгота 48.17 высота над уровнем моря 4 м.

В архиве по умолчанию представлена погода в Курдамире за последнюю неделю. Архивные данные за месяц целиком и за предыдущие месяцы, начиная с января 2011 года, Вы можете получить, выбрав интересующий диапазон дат из раскрывающегося списка и нажав кнопку "Ввод!".


*Определитесь, кто Вы:
робот инопланетянин человек

Внимание! Время в таблицах - всемирное. Для получения местного времени необходимо прибавить поправку, которая равна 4 ч.

Смотрите также архив погоды в соседних городах и на ближайших метеорологических станциях:

Погода в Геокчае (Азербайджан) (50 км)
Погода в Шемахе (Азербайджан) (51 км)
Погода в Маразе (Азербайджан) (68 км)
Погода в Беылагане (Азербайджан) (72 км)
Погода в Габале (Азербайджан) (77 км)
Погода в Парсабаде (Иран) (79 км)
Погода в Барде (Азербайджан) (88 км)
Погода в Евлахе (Азербайджан) (92 км)
Погода в Алате (Азербайджан) (112 км)
Погода в Губе (Азербайджан) (119 км)

Пояснения к столбцам:

Ветер - указаны скорость ветра в м/с - средняя за 10 мин, порывы в срок и между сроками (в фигурных скобках) и направление, откуда дует ветер: С - северный, СВ - северо-восточный, В - восточный, ЮВ - юго-восточный, Ю - южный, ЮЗ - юго-западный, З - западный, СЗ - северо-западный.
Видимость - горизонтальная дальность видимости в метрах или километрах. При видимости от 1 до 10 км при отсутствии осадков обычно наблюдается дымка, при ухудшении видимости до 1 км и менее - туман. В сухую погоду видимость может ухудшаться дымом, пылью или мглою.
Явления - указаны атмосферные явления, наблюдавшиеся в срок или в последний час перед сроком; фигурными скобками обозначены явления, наблюдавшиеся между сроками (за 1-3 часа до срока); квадратными скобками обозначены град или гололедные отложения с указанием их диаметра в мм.
Облачность - указаны через наклонную черту общая и нижняя облачность в баллах и высота нижней границы облаков в метрах; квадратными скобками обозначены формы облаков: Ci - перистые, Cs - перисто-слоистые, Cc - перисто-кучевые, Ac - высококучевые, As - высокослоистые, Sc - слоисто-кучевые, Ns - слоисто-дождевые, Cu - кучевые, Cb - кучево-дождевые. Подробнее классификацию облаков см. в Атласе облаков (PDF).
T - Температура воздуха - температура, измеренная на высоте 2 м над землей.
Td - Температура точки росы - температура, при понижении до которой содержащийся в воздухе водяной пар достигнет насыщения.
f - Относительная влажность воздуха - влажноcть воздуха, измеренная на высоте 2 м над землей.
Te - Эффективная температура - температура, которую ощущает одетый по сезону человек в тени. Характеристика душности погоды. При расчете учитывается влияние влажности воздуха и скорости ветра на теплоощущения человека.
Tes - Эффективная температура на солнце - температура, которую ощущает человек, с поправкой на солнечный нагрев. Характеристика знойности погоды. Зависит от высоты солнца над горизонтом, облачности и скорости ветра. Ночью, в пасмурную погоду, а также при ветре 12 м/с и более поправка равна нулю.
P - Атмосферное давление - приведенное к уровню моря атмосферное давление.
Po - Атмосферное давление - измеренное на уровне метеостанции атмосферное давление.
Tmin - Минимальная температура - минимум температуры воздуха на высоте 2 м над землей.
Tmax - Максимальная температура - максимум температуры воздуха на высоте 2 м над землей.
R - Количество осадков - Количество выпавших осадков за период времени, мм. При наведении курсора мыши на число - период времени, за который выпало указанное количество осадков.
R24 - Количество осадков - Количество выпавших осадков за 24 часа, мм.
S - Снежный покров - Высота снежного покрова, см. При наведении курсора мыши на число - состояние снежного покрова и степень покрытия местности в баллах.